This is the latest recevied weather packets stored in our database for station/object W5YIU-13. If no packets are shown the sender has not sent any weather packets the latest 1 day(s).
| Time | Temp. | Humidity | Pressure | Rain* | Wind** | Luminosity | Snow |
|---|---|---|---|---|---|---|---|
| 1778203368 | 23.33° C | 74% | 1008.6 hPa | 0 mm | - | 0 W/m² | - |
| 1778203069 | 23.33° C | 73% | 1008.5 hPa | 0 mm | - | 0 W/m² | - |
| 1778202769 | 23.33° C | 73% | 1008.5 hPa | 0 mm | - | 0 W/m² | - |
| 1778202469 | 23.33° C | 73% | 1008.3 hPa | 0 mm | - | 0 W/m² | - |
| 1778201866 | 23.89° C | 72% | 1008.3 hPa | 0 mm | - | 4 W/m² | - |
| 1778201567 | 23.89° C | 72% | 1008.3 hPa | 0 mm | - | 7 W/m² | - |
| 1778201266 | 23.89° C | 72% | 1008.3 hPa | 0 mm | - | 11 W/m² | - |
| 1778200966 | 23.89° C | 71% | 1008.3 hPa | 0 mm | - | 11 W/m² | - |
| 1778200669 | 23.89° C | 71% | 1008.2 hPa | 0 mm | - | 12 W/m² | - |
| 1778200069 | 24.44° C | 71% | 1008.2 hPa | 0 mm | - | 21 W/m² | - |
| 1778199765 | 24.44° C | 71% | 1008.4 hPa | 0 mm | - | 27 W/m² | - |
| 1778199469 | 24.44° C | 71% | 1008.5 hPa | 0 mm | - | 32 W/m² | - |
| 1778198569 | 24.44° C | 71% | 1008.6 hPa | 0 mm | - | 39 W/m² | - |
| 1778198265 | 24.44° C | 70% | 1008.5 hPa | 0 mm | - | 63 W/m² | - |
| 1778197365 | 25° C | 70% | 1008.8 hPa | 0 mm | - | 38 W/m² | - |
| 1778196762 | 25° C | 70% | 1008.6 hPa | 0 mm | - | 65 W/m² | - |
| 1778196462 | 25° C | 70% | 1008.5 hPa | 0 mm | - | 55 W/m² | - |
| 1778195862 | 25.56° C | 69% | 1008.4 hPa | 0 mm | - | 38 W/m² | - |
| 1778195563 | 25.56° C | 69% | 1008.2 hPa | 0 mm | - | 64 W/m² | - |
| 1778195262 | 25.56° C | 69% | 1008.1 hPa | 0 mm | - | 83 W/m² | - |
| 1778194963 | 25.56° C | 69% | 1008.1 hPa | 0 mm | - | 72 W/m² | - |
| 1778192559 | 26.67° C | 67% | 1007.8 hPa | 0 mm | - | 211 W/m² | - |
| 1778191958 | 26.67° C | 68% | 1008 hPa | 0 mm | - | 257 W/m² | - |
| 1778190754 | 27.22° C | 67% | 1008.2 hPa | 0 mm | - | 233 W/m² | - |
| 1778190454 | 27.22° C | 66% | 1008.2 hPa | 0 mm | - | 245 W/m² | - |
* Rain latest hour (hover to see other rain measurements)
** Current wind speed in m/s (hover to see current wind gust speed)